Flag for U.S.A. Weather past 2 weeks in Angels Camp, California, U.S.A.

Now
56 °F

Fog.


Feels Like: 56 °F
Forecast: 48 / 60 °F
Wind: 3 mph from North

Location: Modesto City-County-Sham Field

Current Time: Dec 21, 2014 at 7:30:56 AM

Latest Report: Dec 21, 2014 at 6:53 AM


Visibility: 4 mi

Pressure: 30.28 "Hg

Humidity: 90%

Dew point: 53 °F

Location of Angels CampLocation

Historic Weather in Angels Camp — Graph

°F

Angels Camp temperature yesterday

Maximum temperature yesterday: 58 °F (at 1:53 PM)
Minimum temperature yesterday: 53 °F (at 12:53 AM)
Average temperature yesterday: 55 °F

Past Weeks' High & Low Weather Summary

 TemperatureHumidityPressure
High71 °F (Dec 6, 1:53 PM)100% (Dec 9, 3:53 AM)32.98 "Hg (Dec 9, 3:53 AM)
Low43 °F (Dec 14, 2:53 AM)54% (Dec 11, 9:53 AM)29.60 "Hg (Dec 11, 11:53 AM)
Average53 °F87%30.07 "Hg
* Reported Dec 6 5:53 AM — Dec 21 5:53 AM, Angels Camp, Weather by CustomWeather, © 2014

Note: Actual official high and low records may vary slightly from our data, if they occured in-between our weather recording intervals... More about our weather records

Advertising

Angels Camp weather history for previous 24 hours

 ConditionsComfort  
Time TempWeatherWind HumidityBarometerVisibility
5:53 AM
Dec 21
55 °FFog.3 mph93%30.26 "Hg2 mi
4:53 AM54 °FFog.No wind93%30.24 "Hg1 mi
3:53 AM56 °FFog.No wind90%30.24 "Hg2 mi
2:53 AM56 °FFog.No wind90%30.26 "Hg4 mi
1:53 AM56 °FFog.No wind90%30.26 "Hg4 mi
12:53 AM55 °FFog.No wind93%30.24 "Hg4 mi
11:53 PM
Dec 20
55 °FFog.No wind93%30.26 "Hg4 mi
10:53 PM56 °FFog.No wind90%30.27 "Hg3 mi
9:53 PM56 °FFog.No wind90%30.27 "Hg5 mi
8:53 PM56 °FFog.No wind90%30.25 "Hg4 mi
7:53 PM55 °FFog.No wind93%30.24 "Hg4 mi
6:53 PM56 °FFog.No wind90%30.23 "Hg6 mi
5:53 PM56 °FOvercast.No wind90%30.22 "Hg8 mi
4:53 PM57 °FMostly cloudy.No wind83%30.22 "Hg10 mi
3:53 PM58 °FOvercast.No wind81%30.21 "Hg9 mi
2:53 PM58 °FMore clouds than sun.No wind81%30.20 "Hg8 mi
1:53 PM58 °FOvercast.No wind81%30.21 "Hg8 mi
12:53 PM57 °FOvercast.6 mph83%30.20 "Hg8 mi
11:53 AM56 °FFog.6 mph87%30.22 "Hg6 mi
10:53 AM55 °FMostly cloudy.3 mph90%30.24 "Hg7 mi
10:00 AM54 °FFog.8 mph93%30.24 "Hg6 mi
8:53 AM53 °FLight rain. Fog.No wind93%30.21 "Hg2 mi
7:53 AM53 °FLight rain. Fog.No wind93%30.19 "Hg1 mi
Weather by CustomWeather, © 2014

See weather overviewHow to use our weather pages